Regional Weather Roundup
Issued by NWS

Home | Current Version | Previous Version | Text Only | Print | Product List | Glossary On
Versions: 1 2 3 4 5 6 7 8 9 10 11 12 13 14 15 16 17 18 19 20 21 22 23 24 25 26 27
000
ASUS45 KBOU 190910
RWRCO

WEATHER ROUNDUP FOR COLORADO
NATIONAL WEATHER SERVICE DENVER/BOULDER CO
200 AM MST FRI JAN 19 2018

NOTE: "FAIR" INDICATES FEW OR NO CLOUDS BELOW 12000 FEET WITH NO
SIGNIFICANT WEATHER AND/OR OBSTRUCTIONS TO VISIBILITY.

COZ001>005-013-030-031-191000-
...NORTHWEST COLORADO...

CITY           SKY/WX    TMP DP  RH WIND       PRES   REMARKS
CRAIG          FAIR      24  16  71 SW8       30.03F WCI  15
HAYDEN         FAIR     N/A N/A N/A E12       30.03F
MEEKER         FAIR      27  19  72 NE3       30.04F
RABBIT EARS PA FAIR      28  21  74 W9G17     30.10F WCI  20
STEAMBOAT SPGS FAIR      16  13  90 W3        30.04F
WALDEN         FAIR      21  12  68 SE12      30.02F WCI   9
$$

COZ006>008-011-191000-
...WEST CENTRAL VALLEYS...

CITY           SKY/WX    TMP DP  RH WIND       PRES   REMARKS
GRAND JUNCTION FAIR      26  18  71 SE10      30.10F WCI  16
MONTROSE       FAIR      26  17  68 N6        30.14S WCI  19
EAGLE          FAIR      18  12  77 CALM      30.16S
RIFLE          FAIR      23  19  85 E5        30.13R WCI  17
DELTA          FAIR      29  18  64 NW3       30.13S
NUCLA          FAIR      30  19  64 E3        30.18S
$$

COZ017>023-064>068-191000-
...SOUTHWEST COLORADO...

CITY           SKY/WX    TMP DP  RH WIND       PRES   REMARKS
DURANGO        FAIR      20  15  81 E5        30.17F WCI  13
CORTEZ         FAIR      21  17  84 CALM      30.17S
PAGOSA SPRINGS FAIR      22  16  76 CALM      30.19S
TELLURIDE      FAIR      35  16  46 SE5       30.20F WCI  31
WOLF CREEK PAS FAIR      30   5  34 SW10      30.32S WCI  21
$$

COZ009-010-012-014-032>034-037-058>063-191000-
...CENTRAL COLORADO...

CITY           SKY/WX    TMP DP  RH WIND       PRES   REMARKS
ASPEN          FAIR      23  14  68 SE6       30.08F WCI  16
BUENA VISTA    FAIR      22   9  57 CALM      30.10F
COPPER MTN     NOT AVBL
BERTHOUD PASS  FAIR      28  16  59 SW13G32   30.18F WCI  18
COTTONWOOD PAS   N/A     45  14  29 W7        30.14S
GUNNISON       FAIR      12   8  84 CALM      30.22F
KREMMLING      FAIR      14  10  85 CALM      30.12F
LEADVILLE      FAIR      24   9  52 E3        30.13F
MONARCH PASS   FAIR      28  14  54 W24       30.33F WCI  14
SALIDA         FAIR      34   8  33 NW7G16    30.15F WCI  28
SUNLIGHT       FAIR      27  10  50 SW12G22   30.20S WCI  16
WILKERSON PASS FAIR      32   5  32 W12G21    30.19S WCI  23
$$

COZ069>075-191000-
...SAN LUIS VALLEY/SANGRE DE CRISTO MOUNTAINS...

CITY           SKY/WX    TMP DP  RH WIND       PRES   REMARKS
ALAMOSA        FAIR       9  -3  58 SW7       30.16F WCI  -2
DEL NORTE      FAIR      24   5  44 W9        30.17F WCI  14
LA VETA PASS   FAIR      28   3  34 SW33        N/A  WCI  12
SAGUACHE       FAIR      23   5  46 N9        30.17S WCI  13
$$

COZ035-036-038>040-191000-
...NORTHERN COLORADO FRONT RANGE...

CITY           SKY/WX    TMP DP  RH WIND       PRES   REMARKS
DENVER INTL AP MOCLDY    48  11  22 S18       29.85F
DMNS CITY PARK NOT AVBL
AURORA         MOCLDY    42  12  29 S9        29.87F
FRONT RANGE AP FAIR      40  18  42 S16       29.86F
ERIE MUNI ARPT FAIR      32  21  64 CALM      29.89F
BOULDER MUN AP FAIR      45  18  33 CALM      29.83F
CENTENNIAL     FAIR      43   9  24 SE10      29.88F
BROOMFIELD     FAIR      48  12  23 SW5       29.86F
FORT COLLINS   FAIR      32  24  72 NE5       29.85F WCI  27
LONGMONT       FAIR      39  22  50 CALM      29.85F
$$

COZ041-046-047-076>085-087-088-191000-
...PIKES PEAK/PALMER DIVIDE AND SOUTHERN FOOTHILLS...

CITY           SKY/WX    TMP DP  RH WIND       PRES   REMARKS
COLO. SPRINGS  MOCLDY    31   7  36 NE10      29.94F WCI  22
A. F. ACADEMY  FAIR      30   6  36 SE3       29.93F
SCHRIEVER AFB  FAIR      34   6  30 CALM      29.94F
CHEYENNE MTN   FAIR      46   8  21 CALM      29.90F
ELLICOTT         N/A    N/A N/A N/A CALM      29.92F
FALCON         FAIR      31   7  35 CALM      29.95F
FORT CARSON    CLEAR     32  12  42 NW9       29.92F WCI  25
LIMON          FAIR      21  12  68 NW5       29.90F WCI  15
MONUMENT HILL  FAIR      41   9  26 SW13      29.96F
CANON CITY     FAIR      46  12  25 W16       29.93S
WALSENBURG     FAIR      48  10  21 SW14G20   29.96F
TRINIDAD       FAIR      31  10  41 W13       29.97F WCI  21
$$

COZ042>045-048>051-090-091-191000-
...NORTHEAST COLORADO...

CITY           SKY/WX    TMP DP  RH WIND       PRES   REMARKS
GREELEY ARPT   FAIR      25  18  74 CALM      29.85F
AKRON          FAIR      45  11  25 SW14      29.84F
BURLINGTON     FAIR      42  14  32 SW12      29.87F
WRAY           FAIR      34  16  47 W7        29.82F WCI  28
YUMA           FAIR      36  10  35 SW10      29.82F
STERLING       FAIR      30  21  69 SW9       29.83F WCI  22
HOLYOKE        FAIR      34  23  64 W9        29.81F WCI  26
FORT MORGAN    FAIR      30  17  58 W9        29.85S WCI  21
$$

COZ086-089-092>099-191000-
...SOUTHEAST COLORADO...

CITY           SKY/WX    TMP DP  RH WIND       PRES   REMARKS
PUEBLO         FAIR      26  14  60 W8        29.92F WCI  18
LA JUNTA       FAIR      27  14  58 W9        29.91F WCI  18
LAMAR          FAIR      24   9  52 SW9       29.90F WCI  14
SPRINGFIELD      N/A     26   8  46 W6        29.91F WCI  19
$$




USA.gov is the U.S. government's official web portal to all federal, state and local government web resources and services.